STARLINK-30378, 57787

Orbit data source: Space-Track

STARLINK-30378, 57787 is a payload satellite owned by SpaceX/Seattle (US) in LEO that was launched on Mon, 04 Sep 2023 UTC via an FALCON 9 launch vehicle from the Air Force Eastern Test Range (AFETR). Payload-class satellites include a variety of spacecraft equipped with specific instruments for various scientific and technological missions. These include communications satellites like Starlink; space stations such as the ISS; scientific satellites like the Hubble; Earth observation satellites from companies like Planet Labs, Umbra, and HawkEye 360; GPS; miniature CubeSats for education and research; and military/defense satellites.

Loading next visibility...
Identifier
57787, 2023-134S
Orbit
LEO
Country
Flag of USUS
Related business
Manufacturer
SpaceX/Seattle
Mission
Operational Commercial Communications
Bus & Motor
STARLINK V2M, Unknown motor
Mass
730 kg wet, ~700 kg dry
Launch date (UTC)
2023-09-04 (2 years ago)
Launch vehicle
FALCON 9
Launch site
Air Force Eastern Test Range (AFETR)
Object type
Payload
Rocket body
Debris
Shape & HBR
Box + 2 Pan, 17.7 m
Radar Cross Section
33.884 m², Large (>1 m²)

Expand to show TLE details & history
Last TLE update: 19 hours ago

TLE from 19 hours ago
0 STARLINK-30378
1 57787U 23134S   25346.58887588  .00000289  00000-0  36436-4 0  9999
2 57787  43.0038 310.3916 0000561 269.1329  90.9449 15.02534797126378
Epoch: 2025-12-12T14:07Z
TLE epoch observation values (Epoch: 2025-12-12T14:07:58.876Z)
Latitude
-0.00001°
Longitude
16.86794°
Altitude
558.868 km
Speed
7.584 km/s
True Right ascension
20h 41m 33s
True Declination
0° 00' 00"
Sunlit
Object was in daylight at epoch
Visualization orbit readout
Latitude
Unknown
Longitude
Unknown
Altitude
Unknown
Speed
Unknown
Apparent Right ascension
Unknown
Apparent Declination
Unknown
Sunlit
N/A
Visualization observer readout
Local Sidereal Time
07:26:33
Azimuth
Unknown
Elevation
Unknown
Doppler factor
Unknown
Orbital elements
Apogee altitude
561.396 km
Perigee altitude
560.617 km
Semi-major axis
6,939.144 km
Eccentricity
0.00006
Inclination
43.0038°
RAAN
310.3916°
Arg. of periapsis
269.1329°
True anomaly
90.95133°
Mean anomaly
90.9449°
Eccentric anomaly
90.94811°
Mean motion
3.75478 °/min
Orbital period
95.88 mins
BSTAR
0.000036436
Loading maneuver chart data...
Computing Atmospheric mass density...
Loading historical data...
Loading historical data...
Loading historical data...
Loading historical data...
Loading historical data...
Loading historical data...
Loading historical data...

Documentation

Showing up to 5 results
|